Tracking 19794 objects as of 21-Jul-2019
HD Live streaming from Space Station
objects crossing your sky now

COSMOS 397 DEB

Track COSMOS 397 DEB now!
10-day predictions


NORAD ID: 6844
Int'l Code: 1971-015CL
Perigee: 541.3 km
Apogee: 1,485.6 km
Inclination: 65.9 °
Period: 105.3 minutes
Semi major axis: 7384 km
RCS: 0.0356 m2 (small)
Launch date: February 25, 1971
Source: Commonwealth of Independent States (former USSR) (CIS)
Launch site: TYURATAM MISSILE AND SPACE COMPLEX (TTMTR)

Note: This is SATELLITE DEBRIS
aabbcc
Your satellite tracking list
Your tracking list is empty




NASA's NSSDC Master Catalog

Two Line Element Set (TLE):
1  6844U 71015CL  19201.56116970  .00000079  00000-0  51481-4 0  9993
2  6844  65.9015 342.4795 0639347 314.0347  40.9691 13.68124751274222
Source of the keplerian elements: AFSPC